This demonstration page uses our WeatherBlox Daily Observations layout. Learn more.

Left ArrowRight Arrow

36.17497, -115.13722

Hourly Observations for August 30, 2019

Temp ( °F °C ) Dew Point ( °F °C ) Humidity (%) Winds ( mph kmh ) Pressure ( in mb ) Visibility ( mi km ) Precip ( " mm )
12:53 am 00:53 Clear 92 33.3 46 7.8 21 21 SSW 3 6 29.84 1011 10 16 0.00 0.00
1:53 am 01:53 Clear 90 32.2 44 6.7 20 20 W 3 6 29.85 1011 10 16 0.00 0.00
2:53 am 02:53 Clear 88 31.1 45 7.2 22 22 WSW 3 6 29.85 1011 10 16 0.00 0.00
3:53 am 03:53 Clear 83 28.3 46 7.8 27 27 NW 6 9 29.85 1011 10 16 0.00 0.00
4:53 am 04:53 Clear 81 27.2 47 8.3 30 30 WNW 5 7 29.86 1011 10 16 0.00 0.00
5:53 am 05:53 Clear 81 27.2 47 8.3 30 30 NW 5 7 29.87 1012 10 16 0.00 0.00
6:53 am 06:53 Sunny 81 27.2 45 7.2 28 28 N 6 9 29.89 1012 10 16 0.00 0.00
7:53 am 07:53 Sunny 84 28.9 44 6.7 25 25 NNE 5 7 29.90 1013 10 16 0.00 0.00
8:53 am 08:53 Sunny 89 31.7 42 5.6 19 19 Calm 29.91 1013 10 16 0.00 0.00
9:53 am 09:53 Sunny 93 33.9 39 3.9 15 15 SE 6 9 29.91 1013 10 16 0.00 0.00
10:53 am 10:53 Sunny 98 36.7 34 1.1 11 11 VRB 3 6 29.89 1012 10 16 0.00 0.00
11:53 am 11:53 Sunny 102 38.9 29 -1.7 8 8 SSE 5 7 29.87 1012 10 16 0.00 0.00
12:53 pm 12:53 Sunny 105 40.6 28 -2.2 7 7 S 18 30 29.84 1010 10 16 0.00 0.00
1:53 pm 13:53 Sunny 106 41.1 28 -2.2 6 6 S 17 28 29.82 1010 10 16 0.00 0.00
2:53 pm 14:53 Sunny 106 41.1 25 -3.9 6 6 S 15 24 29.79 1009 10 16 0.00 0.00
3:53 pm 15:53 Sunny 107 41.7 25 -3.9 5 5 SSE 15 24 29.78 1008 10 16 0.00 0.00
4:53 pm 16:53 Sunny 107 41.7 26 -3.3 6 6 SSE 12 19 29.75 1008 10 16 0.00 0.00
5:53 pm 17:53 Sunny 105 40.6 27 -2.8 6 6 S 13 20 29.75 1008 10 16 0.00 0.00
6:53 pm 18:53 Sunny 103 39.4 29 -1.7 7 7 SSW 13 20 29.75 1008 10 16 0.00 0.00
7:53 pm 19:53 Clear 100 37.8 30 -1.1 8 8 SW 8 13 29.76 1008 10 16 0.00 0.00
8:53 pm 20:53 Clear 95 35 32 0 11 11 WNW 9 15 29.79 1009 10 16 0.00 0.00
9:53 pm 21:53 Clear 95 35 26 -3.3 8 8 WNW 12 19 29.80 1009 10 16 0.00 0.00
10:53 pm 22:53 Clear 96 35.6 24 -4.4 7 7 NW 12 19 29.80 1009 10 16 0.00 0.00
11:53 pm 23:53 Clear 91 32.8 29 -1.7 11 11 WSW 7 11 29.81 1010 10 16 0.00 0.00

Powered by AerisWeather